User: anonymous   Login
Location: Prague
(50.0830°N, 14.4670°E)
Time: 23:05:06
(UTC+01:00)
Language:

FO-29 - Orbit

View from above orbital plane
View from above orbital plane
View from above satellite
View from above satellite

Ground track
Ground track

The orbit data is extracted from the following two-line orbital elements,

1 24278U 96046B   21339.40728582 -.00000015  00000-0  18015-4 0  9998
2 24278  98.5443  24.5525 0351250  66.7065 297.0635 13.53108275249616
Epoch (UTC): 05 December 2021 09:46:29
Eccentricity: 0.0351250
inclination: 98.5443°
perigee height: 799 km
apogee height: 1322 km
right ascension of ascending node: 24.5525°
argument of perigee: 66.7065°
revolutions per day: 13.53108275
mean anomaly at epoch: 297.0635°
orbit number at epoch: 24961

The dashed part of the orbit path shows where the satellite is in the earth's shadow,  

DLR